Погода в Зиновкином

Россия / Брянская область     52°27′01″N   34°34′57″E
темп.,
°C
ветер,
м/с
пор.,
м/с
влажн.,
%
обл.,
%
осадки,
мм/ч
давл.,
гПа
погр.,
м
25 июля, вс
вс2500:00+16вюв23703 0.0 101751
03:00+14вюв227733 0.0 101817
06:00+15юв23777 0.0 101959
09:00+20юв126329 0.0 1019403
12:00+25юв224822 0.0 10201679
15:00+20юв136871 0.3 102048
18:00+23вюв236199 0.0 1020213
21:00+20вюв226898 0.0 102118
26 июля, пн
пн2600:00+19ю226898 0.0 102216
03:00+18вюв226664 0.3 102228
06:00+18юв246777 0.0 102272
09:00+20юв246481 0.0 1023280
12:00+26ююв33483 0.0 10231293
15:00+25ююв4556100 0.1 1021780
18:00+20вюв117547 1.5 102221
21:00+18вюв3488100 3.6 102373
27 июля, вт
вт2700:00+18юв358846 2.4 102381
03:00+16юв238819 3.1 102349
06:00+16ююв22865 0.0 102342
09:00+22ююв2363100 0.0 1023366
12:00+26ю344565 0.0 10221128
15:00+28ю343959 0.0 10202298
18:00+27юв245099 0.0 1019421
21:00+23юв3561100 0.0 1019100
28 июля, ср
ср2800:00+20юв3964100 0.0 1019177
03:00+21ююв51356100 0.0 1018375
06:00+20ю4136081 0.0 1017368
09:00+17з21086100 0.6 1017366
12:00+18юв51391100 2.9 1016410
15:00+20ю61383100 3.7 1014584
18:00+22ююз388194 0.4 1013828
21:00+19ю379488 0.6 1011162
29 июля, чт
чт2900:00+18юз26974 0.9 1011112
03:00+17зюз37979 0.9 1010145
06:00+18з23961 0.0 100961
09:00+23з2375100 0.0 1009366
12:00+27з345199 0.0 10091644
15:00+29зсз354174 0.0 10072462
18:00+23ю357144 0.1 1006312
21:00+19ссз2396100 2.3 100775